PIMOHWEATHER Station Historical Data
Daily Summary for July 22, 2020 Units:  Metric    English   Both
Daily Weekly Monthly Yearly
  High: Low: Average:
Temperature: 35.0 °C 24.0 °C 28.7 °C
Dew Point: 28.0 °C 24.0 °C 25.9 °C
Humidity: 96% 69% 86%
Wind Speed: 17km/h 0km/h 5km/h
Wind Gust: 20km/h - -
Wind- - South
Pressure: 1011.9 hPa 1008.2 hPa -
Precipitation: 0.00 mm    
 
 
Tabular Data for July 22, 2020
Time Temperature Dew Point Pressure Wind Wind Speed Wind Gust Humidity Rainfall Rate (Hourly) solar
00:04 25.0 °C 24.0 °C 1011.9 hPa NNW 11 km/h 16 km/h 96% 0.00 mm 0.00 W/m2
00:09 25.0 °C 24.0 °C 1011.6 hPa NNW 17 km/h 20 km/h 96% 0.00 mm 0.00 W/m2
00:14 24.0 °C 24.0 °C 1011.6 hPa North 10 km/h 16 km/h 96% 0.00 mm 0.00 W/m2
00:19 24.0 °C 24.0 °C 1011.5 hPa NNW 12 km/h 16 km/h 96% 0.00 mm 0.00 W/m2
00:24 24.0 °C 24.0 °C 1011.2 hPa North 13 km/h 16 km/h 96% 0.00 mm 0.00 W/m2
00:29 24.0 °C 24.0 °C 1011.2 hPa North 10 km/h 12 km/h 96% 0.00 mm 0.00 W/m2
00:34 24.0 °C 24.0 °C 1011.1 hPa North 8 km/h 8 km/h 96% 0.00 mm 0.00 W/m2
00:37 24.0 °C 24.0 °C 1011.3 hPa North 7 km/h 8 km/h 96% 0.00 mm 0.00 W/m2
00:49 24.0 °C 24.0 °C 1011.2 hPa NNW 7 km/h 8 km/h 95% 0.00 mm 0.00 W/m2
00:54 24.0 °C 24.0 °C 1011.5 hPa NNW 6 km/h 8 km/h 95% 0.00 mm 0.00 W/m2
00:59 24.0 °C 24.0 °C 1011.5 hPa North 6 km/h 8 km/h 95% 0.00 mm 0.00 W/m2
01:04 24.0 °C 24.0 °C 1011.5 hPa North 4 km/h 4 km/h 95% 0.00 mm 0.00 W/m2
01:09 24.0 °C 24.0 °C 1011.4 hPa North 3 km/h 4 km/h 95% 0.00 mm 0.00 W/m2
01:14 25.0 °C 24.0 °C 1011.4 hPa North 1 km/h 4 km/h 95% 0.00 mm 0.00 W/m2
01:19 25.0 °C 24.0 °C 1011.5 hPa Calm     95% 0.00 mm 0.00 W/m2
01:24 25.0 °C 24.0 °C 1011.5 hPa Calm     95% 0.00 mm 0.00 W/m2
01:29 25.0 °C 24.0 °C 1011.2 hPa Calm     95% 0.00 mm 0.00 W/m2
01:34 25.0 °C 24.0 °C 1010.9 hPa Calm     95% 0.00 mm 0.00 W/m2
01:39 25.0 °C 24.0 °C 1010.8 hPa Calm   4 km/h 95% 0.00 mm 0.00 W/m2
01:44 25.0 °C 24.0 °C 1010.7 hPa Calm   4 km/h 95% 0.00 mm 0.00 W/m2
01:49 25.0 °C 24.0 °C 1010.6 hPa Calm     94% 0.00 mm 0.00 W/m2
01:54 25.0 °C 24.0 °C 1010.6 hPa Calm     94% 0.00 mm 0.00 W/m2
01:59 25.0 °C 24.0 °C 1010.6 hPa Calm     94% 0.00 mm 0.00 W/m2
02:04 25.0 °C 24.0 °C 1010.6 hPa Calm     94% 0.00 mm 0.00 W/m2
02:09 25.0 °C 24.0 °C 1010.6 hPa Calm     93% 0.00 mm 0.00 W/m2
02:14 25.0 °C 24.0 °C 1010.6 hPa Calm   4 km/h 94% 0.00 mm 0.00 W/m2
02:19 25.0 °C 24.0 °C 1010.8 hPa Calm     94% 0.00 mm 0.00 W/m2
02:20 25.0 °C 24.0 °C 1010.7 hPa Calm     93% 0.00 mm 0.00 W/m2
02:34 25.0 °C 24.0 °C 1010.7 hPa NNE 5 km/h 8 km/h 94% 0.00 mm 0.00 W/m2
02:39 25.0 °C 24.0 °C 1010.7 hPa North 4 km/h 4 km/h 94% 0.00 mm 0.00 W/m2
02:44 25.0 °C 24.0 °C 1010.9 hPa North 5 km/h 8 km/h 94% 0.00 mm 0.00 W/m2
02:49 25.0 °C 24.0 °C 1010.8 hPa North 6 km/h 8 km/h 94% 0.00 mm 0.00 W/m2
02:54 25.0 °C 24.0 °C 1010.9 hPa North 6 km/h 8 km/h 94% 0.00 mm 0.00 W/m2
02:59 25.0 °C 24.0 °C 1010.9 hPa North 5 km/h 8 km/h 94% 0.00 mm 0.00 W/m2
03:04 25.0 °C 24.0 °C 1011.0 hPa North 5 km/h 8 km/h 94% 0.00 mm 0.00 W/m2
03:09 25.0 °C 24.0 °C 1010.8 hPa NW 7 km/h 8 km/h 95% 0.00 mm 0.00 W/m2
03:14 25.0 °C 24.0 °C 1010.7 hPa NNW 7 km/h 8 km/h 95% 0.00 mm 0.00 W/m2
03:19 25.0 °C 24.0 °C 1010.9 hPa North 6 km/h 8 km/h 95% 0.00 mm 0.00 W/m2
03:24 25.0 °C 24.0 °C 1010.9 hPa NNE 6 km/h 8 km/h 95% 0.00 mm 0.00 W/m2
03:29 25.0 °C 24.0 °C 1011.1 hPa North 5 km/h 8 km/h 95% 0.00 mm 0.00 W/m2
03:34 25.0 °C 24.0 °C 1011.0 hPa North 4 km/h 8 km/h 95% 0.00 mm 0.00 W/m2
03:39 25.0 °C 24.0 °C 1010.9 hPa North 6 km/h 8 km/h 95% 0.00 mm 0.00 W/m2
03:44 25.0 °C 24.0 °C 1010.8 hPa NW 6 km/h 8 km/h 95% 0.00 mm 0.00 W/m2
03:49 25.0 °C 24.0 °C 1010.8 hPa NW 7 km/h 8 km/h 95% 0.00 mm 0.00 W/m2
03:54 25.0 °C 24.0 °C 1010.7 hPa NW 11 km/h 12 km/h 95% 0.00 mm 0.00 W/m2
03:59 25.0 °C 24.0 °C 1010.7 hPa NW 10 km/h 12 km/h 95% 0.00 mm 0.00 W/m2
04:04 25.0 °C 24.0 °C 1010.9 hPa NW 10 km/h 12 km/h 95% 0.00 mm 0.00 W/m2
04:14 25.0 °C 24.0 °C 1011.0 hPa North 6 km/h 8 km/h 95% 0.00 mm 0.00 W/m2
04:19 25.0 °C 24.0 °C 1011.0 hPa NNW 10 km/h 16 km/h 96% 0.00 mm 0.00 W/m2
04:24 25.0 °C 24.0 °C 1011.1 hPa NNW 15 km/h 20 km/h 96% 0.00 mm 0.00 W/m2
04:29 25.0 °C 24.0 °C 1011.0 hPa North 6 km/h 8 km/h 96% 0.00 mm 0.00 W/m2
04:34 25.0 °C 24.0 °C 1011.1 hPa North 6 km/h 8 km/h 96% 0.00 mm 0.00 W/m2
04:39 25.0 °C 24.0 °C 1011.2 hPa North 7 km/h 12 km/h 96% 0.00 mm 0.00 W/m2
04:44 25.0 °C 24.0 °C 1011.1 hPa North 6 km/h 8 km/h 96% 0.00 mm 0.00 W/m2
04:49 25.0 °C 24.0 °C 1011.2 hPa North 8 km/h 12 km/h 96% 0.00 mm 0.00 W/m2
04:54 25.0 °C 24.0 °C 1010.8 hPa North 6 km/h 8 km/h 96% 0.00 mm 0.00 W/m2
04:59 25.0 °C 24.0 °C 1010.9 hPa NNE 9 km/h 12 km/h 96% 0.00 mm 0.00 W/m2
05:09 25.0 °C 24.0 °C 1010.8 hPa NNE 9 km/h 12 km/h 96% 0.00 mm 0.00 W/m2
05:14 25.0 °C 24.0 °C 1011.1 hPa North 8 km/h 8 km/h 96% 0.00 mm 0.00 W/m2
05:19 25.0 °C 24.0 °C 1011.1 hPa North 8 km/h 12 km/h 96% 0.00 mm 0.00 W/m2
05:24 25.0 °C 24.0 °C 1011.0 hPa NNW 8 km/h 12 km/h 96% 0.00 mm 0.00 W/m2
05:29 25.0 °C 24.0 °C 1011.0 hPa NNW 6 km/h 8 km/h 96% 0.00 mm 0.00 W/m2
05:34 25.0 °C 24.0 °C 1011.1 hPa North 5 km/h 8 km/h 96% 0.00 mm 0.00 W/m2
05:39 25.0 °C 24.0 °C 1011.2 hPa NNW 5 km/h 8 km/h 96% 0.00 mm 0.00 W/m2
05:44 25.0 °C 24.0 °C 1011.4 hPa North 4 km/h 4 km/h 96% 0.00 mm 0.00 W/m2
05:48 25.0 °C 24.0 °C 1011.1 hPa North 6 km/h 8 km/h 95% 0.00 mm 1.42 W/m2
05:59 25.0 °C 24.0 °C 1011.2 hPa NNW 7 km/h 8 km/h 95% 0.00 mm 8.97 W/m2
06:04 25.0 °C 24.0 °C 1011.2 hPa NNW 6 km/h 8 km/h 95% 0.00 mm 12.78 W/m2
06:09 25.0 °C 24.0 °C 1011.2 hPa North 9 km/h 12 km/h 95% 0.00 mm 17.54 W/m2
06:14 25.0 °C 24.0 °C 1011.2 hPa NNW 9 km/h 12 km/h 95% 0.00 mm 22.30 W/m2
06:19 25.0 °C 24.0 °C 1011.2 hPa NW 9 km/h 12 km/h 95% 0.00 mm 28.87 W/m2
06:24 25.0 °C 24.0 °C 1011.2 hPa North 8 km/h 8 km/h 95% 0.00 mm 37.04 W/m2
06:29 25.0 °C 24.0 °C 1011.2 hPa North 6 km/h 8 km/h 95% 0.00 mm 44.29 W/m2
06:34 25.0 °C 24.0 °C 1011.2 hPa NNW 9 km/h 12 km/h 95% 0.00 mm 49.63 W/m2
06:39 25.0 °C 24.0 °C 1011.2 hPa North 8 km/h 12 km/h 94% 0.00 mm 52.73 W/m2
06:44 25.0 °C 24.0 °C 1011.2 hPa North 10 km/h 12 km/h 94% 0.00 mm 55.12 W/m2
06:49 25.0 °C 24.0 °C 1010.8 hPa North 8 km/h 12 km/h 95% 0.00 mm 59.50 W/m2
06:54 25.0 °C 24.0 °C 1011.2 hPa North 9 km/h 12 km/h 95% 0.00 mm 65.14 W/m2
06:59 25.0 °C 24.0 °C 1010.8 hPa NW 12 km/h 16 km/h 95% 0.00 mm 65.84 W/m2
07:04 25.0 °C 24.0 °C 1010.8 hPa North 10 km/h 12 km/h 94% 0.00 mm 64.82 W/m2
07:09 25.0 °C 24.0 °C 1010.8 hPa North 11 km/h 16 km/h 94% 0.00 mm 60.87 W/m2
07:14 25.0 °C 24.0 °C 1010.8 hPa North 11 km/h 16 km/h 94% 0.00 mm 62.04 W/m2
07:19 25.0 °C 24.0 °C 1011.2 hPa NNE 12 km/h 16 km/h 93% 0.00 mm 63.50 W/m2
07:24 26.0 °C 24.0 °C 1011.2 hPa NNE 10 km/h 12 km/h 93% 0.00 mm 63.79 W/m2
07:29 26.0 °C 24.0 °C 1011.2 hPa North 10 km/h 12 km/h 93% 0.00 mm 63.33 W/m2
07:34 26.0 °C 24.0 °C 1011.2 hPa NNW 10 km/h 12 km/h 93% 0.00 mm 65.96 W/m2
07:39 26.0 °C 24.0 °C 1011.2 hPa North 7 km/h 8 km/h 93% 0.00 mm 70.75 W/m2
07:44 26.0 °C 24.0 °C 1011.5 hPa North 10 km/h 12 km/h 92% 0.00 mm 75.59 W/m2
07:49 26.0 °C 25.0 °C 1011.5 hPa NNW 6 km/h 8 km/h 92% 0.00 mm 75.97 W/m2
07:54 26.0 °C 25.0 °C 1011.5 hPa NNE 4 km/h 8 km/h 92% 0.00 mm 74.25 W/m2
07:59 26.0 °C 25.0 °C 1011.9 hPa North 9 km/h 12 km/h 92% 0.00 mm 67.65 W/m2
08:04 26.0 °C 25.0 °C 1011.9 hPa North 8 km/h 8 km/h 92% 0.00 mm 63.27 W/m2
08:09 26.0 °C 25.0 °C 1011.8 hPa NNE 8 km/h 12 km/h 91% 0.00 mm 61.63 W/m2
08:14 26.0 °C 25.0 °C 1011.9 hPa NNE 6 km/h 8 km/h 92% 0.00 mm 60.96 W/m2
08:19 26.0 °C 25.0 °C 1011.9 hPa North 10 km/h 12 km/h 92% 0.00 mm 59.74 W/m2
08:24 26.0 °C 25.0 °C 1011.9 hPa NNE 8 km/h 8 km/h 92% 0.00 mm 57.75 W/m2
08:29 26.0 °C 25.0 °C 1011.8 hPa NNE 6 km/h 8 km/h 92% 0.00 mm 56.38 W/m2
08:34 26.0 °C 25.0 °C 1011.7 hPa NNE 5 km/h 8 km/h 92% 0.00 mm 56.38 W/m2
08:39 26.0 °C 25.0 °C 1011.9 hPa North 3 km/h 4 km/h 91% 0.00 mm 55.94 W/m2
08:43 26.0 °C 25.0 °C 1011.9 hPa NNE 8 km/h 12 km/h 91% 0.00 mm 56.29 W/m2
08:49 26.0 °C 25.0 °C 1011.9 hPa NNE 8 km/h 12 km/h 91% 0.00 mm 59.30 W/m2
08:54 26.0 °C 25.0 °C 1011.9 hPa North 9 km/h 12 km/h 91% 0.00 mm 62.98 W/m2
08:59 26.0 °C 25.0 °C 1011.5 hPa NNE 6 km/h 8 km/h 91% 0.00 mm 69.11 W/m2
09:04 26.0 °C 25.0 °C 1011.9 hPa NNE 8 km/h 8 km/h 91% 0.00 mm 75.97 W/m2
09:06 26.0 °C 25.0 °C 1011.7 hPa NNE 4 km/h 8 km/h 90% 0.00 mm 80.00 W/m2
09:14 27.0 °C 25.0 °C 1011.7 hPa NE 4 km/h 8 km/h 90% 0.00 mm 92.87 W/m2
09:19 27.0 °C 25.0 °C 1011.8 hPa North 6 km/h 8 km/h 89% 0.00 mm 100.70 W/m2
09:24 27.0 °C 25.0 °C 1011.9 hPa NE 5 km/h 8 km/h 89% 0.00 mm 111.74 W/m2
09:27 27.0 °C 25.0 °C 1011.9 hPa NE 5 km/h 8 km/h 88% 0.00 mm 118.27 W/m2
09:33 27.0 °C 25.0 °C 1011.8 hPa NNE 4 km/h 4 km/h 88% 0.00 mm 135.84 W/m2
09:35 27.0 °C 25.0 °C 1011.7 hPa ENE 3 km/h 4 km/h 88% 0.00 mm 143.74 W/m2
09:43 28.0 °C 25.0 °C 1011.9 hPa NNE 3 km/h 4 km/h 86% 0.00 mm 182.37 W/m2
09:49 28.0 °C 25.0 °C 1011.8 hPa Calm   4 km/h 86% 0.00 mm 212.96 W/m2
09:54 29.0 °C 25.0 °C 1011.7 hPa SE 1 km/h 4 km/h 84% 0.00 mm 230.33 W/m2
09:59 29.0 °C 25.0 °C 1011.6 hPa Calm   4 km/h 82% 0.00 mm 249.19 W/m2
10:04 29.0 °C 26.0 °C 1011.7 hPa ENE 1 km/h 4 km/h 82% 0.00 mm 261.33 W/m2
10:09 29.0 °C 26.0 °C 1011.5 hPa East 2 km/h 4 km/h 80% 0.00 mm 282.67 W/m2
10:14 30.0 °C 26.0 °C 1011.5 hPa NNE 4 km/h 4 km/h 80% 0.00 mm 307.25 W/m2
10:17 29.0 °C 25.0 °C 1011.2 hPa North 7 km/h 8 km/h 80% 0.00 mm 308.36 W/m2
10:23 29.0 °C 25.0 °C 1011.2 hPa North 4 km/h 8 km/h 81% 0.00 mm 301.90 W/m2
10:29 29.0 °C 25.0 °C 1011.1 hPa NNW 5 km/h 8 km/h 81% 0.00 mm 301.95 W/m2
10:34 29.0 °C 25.0 °C 1011.1 hPa East 1 km/h 4 km/h 81% 0.00 mm 304.64 W/m2
10:39 30.0 °C 26.0 °C 1011.2 hPa SE 1 km/h 4 km/h 80% 0.00 mm 344.67 W/m2
10:44 30.0 °C 26.0 °C 1011.2 hPa NNW 4 km/h 4 km/h 78% 0.00 mm 358.95 W/m2
10:49 30.0 °C 26.0 °C 1011.3 hPa NNE 5 km/h 8 km/h 77% 0.00 mm 357.78 W/m2
10:54 31.0 °C 26.0 °C 1011.1 hPa North 6 km/h 8 km/h 77% 0.00 mm 345.91 W/m2
10:59 31.0 °C 26.0 °C 1011.2 hPa North 4 km/h 4 km/h 76% 0.00 mm 343.03 W/m2
11:04 31.0 °C 26.0 °C 1011.2 hPa East 3 km/h 4 km/h 75% 0.00 mm 340.31 W/m2
11:09 31.0 °C 26.0 °C 1011.1 hPa ESE 1 km/h 4 km/h 74% 0.00 mm 347.21 W/m2
11:13 31.0 °C 26.0 °C 1011.2 hPa SE 4 km/h 4 km/h 74% 0.00 mm 356.14 W/m2
11:19 31.0 °C 26.0 °C 1011.2 hPa SE 10 km/h 12 km/h 75% 0.00 mm 366.96 W/m2
11:24 31.0 °C 26.0 °C 1011.1 hPa SE 7 km/h 12 km/h 75% 0.00 mm 373.81 W/m2
11:29 31.0 °C 26.0 °C 1011.2 hPa SSE 4 km/h 8 km/h 74% 0.00 mm 385.31 W/m2
11:34 31.0 °C 26.0 °C 1011.2 hPa SSE 12 km/h 16 km/h 74% 0.00 mm 378.43 W/m2
11:39 32.0 °C 26.0 °C 1010.9 hPa ESE 4 km/h 8 km/h 73% 0.00 mm 364.88 W/m2
11:44 32.0 °C 26.0 °C 1010.9 hPa South 2 km/h 4 km/h 72% 0.00 mm 410.65 W/m2
11:49 32.0 °C 27.0 °C 1010.8 hPa SW 8 km/h 12 km/h 73% 0.00 mm 464.33 W/m2
11:54 32.0 °C 27.0 °C 1010.8 hPa South 6 km/h 12 km/h 74% 0.00 mm 457.12 W/m2
11:59 32.0 °C 27.0 °C 1010.8 hPa South 10 km/h 12 km/h 76% 0.00 mm 342.37 W/m2
12:03 31.0 °C 26.0 °C 1010.6 hPa SSW 12 km/h 16 km/h 78% 0.00 mm 299.01 W/m2
12:09 31.0 °C 27.0 °C 1010.5 hPa SSW 7 km/h 12 km/h 78% 0.00 mm 342.49 W/m2
12:13 31.0 °C 27.0 °C 1010.5 hPa SSW 5 km/h 8 km/h 77% 0.00 mm 424.53 W/m2
12:19 31.0 °C 27.0 °C 1010.5 hPa South 9 km/h 12 km/h 77% 0.00 mm 592.93 W/m2
12:24 31.0 °C 27.0 °C 1010.5 hPa South 10 km/h 12 km/h 77% 0.00 mm 611.82 W/m2
12:29 32.0 °C 26.0 °C 1010.2 hPa WNW 7 km/h 8 km/h 76% 0.00 mm 617.48 W/m2
12:34 32.0 °C 27.0 °C 1010.5 hPa South 5 km/h 8 km/h 76% 0.00 mm 671.72 W/m2
12:39 32.0 °C 27.0 °C 1010.1 hPa SW 10 km/h 12 km/h 74% 0.00 mm 666.83 W/m2
12:44 33.0 °C 27.0 °C 1010.2 hPa SSW 8 km/h 12 km/h 74% 0.00 mm 644.02 W/m2
12:49 32.0 °C 27.0 °C 1010.2 hPa SSE 14 km/h 16 km/h 75% 0.00 mm 538.13 W/m2
12:53 32.0 °C 27.0 °C 1009.8 hPa SSW 8 km/h 12 km/h 76% 0.00 mm 474.15 W/m2
12:59 33.0 °C 27.0 °C 1009.8 hPa SSW 8 km/h 8 km/h 74% 0.00 mm 528.05 W/m2
13:04 32.0 °C 27.0 °C 1009.8 hPa WSW 6 km/h 12 km/h 74% 0.00 mm 479.04 W/m2
13:09 32.0 °C 27.0 °C 1009.7 hPa WSW 4 km/h 8 km/h 75% 0.00 mm 559.41 W/m2
13:14 32.0 °C 27.0 °C 1009.6 hPa West 8 km/h 12 km/h 74% 0.00 mm 603.99 W/m2
13:19 33.0 °C 27.0 °C 1009.5 hPa SSW 9 km/h 12 km/h 74% 0.00 mm 458.90 W/m2
13:24 32.0 °C 27.0 °C 1009.6 hPa SW 9 km/h 12 km/h 75% 0.00 mm 231.38 W/m2
13:29 32.0 °C 27.0 °C 1009.5 hPa SW 5 km/h 8 km/h 76% 0.00 mm 237.94 W/m2
13:34 32.0 °C 27.0 °C 1009.5 hPa WSW 6 km/h 8 km/h 77% 0.00 mm 329.47 W/m2
13:39 32.0 °C 27.0 °C 1009.5 hPa SW 10 km/h 16 km/h 76% 0.00 mm 440.55 W/m2
13:41 32.0 °C 27.0 °C 1008.9 hPa NW 5 km/h 8 km/h 75% 0.00 mm 492.79 W/m2
13:47 32.0 °C 27.0 °C 1009.1 hPa West 1 km/h 4 km/h 74% 0.00 mm 265.15 W/m2
13:54 32.0 °C 27.0 °C 1009.2 hPa SSW 9 km/h 12 km/h 76% 0.00 mm 374.91 W/m2
13:59 32.0 °C 27.0 °C 1009.5 hPa SSW 7 km/h 8 km/h 77% 0.00 mm 269.53 W/m2
14:04 32.0 °C 27.0 °C 1009.3 hPa SSW 7 km/h 8 km/h 77% 0.00 mm 382.88 W/m2
14:09 32.0 °C 27.0 °C 1009.2 hPa SSW 10 km/h 12 km/h 77% 0.00 mm 493.96 W/m2
14:14 32.0 °C 27.0 °C 1009.2 hPa South 10 km/h 12 km/h 75% 0.00 mm 540.43 W/m2
14:19 32.0 °C 27.0 °C 1009.1 hPa SSW 6 km/h 8 km/h 75% 0.00 mm 484.03 W/m2
14:24 33.0 °C 27.0 °C 1009.1 hPa South 6 km/h 12 km/h 74% 0.00 mm 640.94 W/m2
14:29 34.0 °C 28.0 °C 1009.1 hPa SW 8 km/h 12 km/h 73% 0.00 mm 632.38 W/m2
14:31 33.0 °C 27.0 °C 1008.9 hPa WSW 5 km/h 8 km/h 71% 0.00 mm 587.65 W/m2
14:39 34.0 °C 28.0 °C 1008.9 hPa WNW 9 km/h 12 km/h 71% 0.00 mm 588.78 W/m2
14:44 34.0 °C 28.0 °C 1008.7 hPa SW 3 km/h 8 km/h 71% 0.00 mm 593.77 W/m2
14:49 34.0 °C 28.0 °C 1008.5 hPa SSW 9 km/h 12 km/h 70% 0.00 mm 593.01 W/m2
14:54 34.0 °C 28.0 °C 1008.6 hPa SSW 12 km/h 16 km/h 71% 0.00 mm 648.06 W/m2
14:59 35.0 °C 28.0 °C 1008.7 hPa WSW 10 km/h 16 km/h 69% 0.00 mm 690.97 W/m2
15:04 34.0 °C 28.0 °C 1008.5 hPa SSW 13 km/h 16 km/h 70% 0.00 mm 650.07 W/m2
15:09 34.0 °C 28.0 °C 1008.8 hPa West 8 km/h 12 km/h 72% 0.00 mm 571.26 W/m2
15:13 34.0 °C 28.0 °C 1008.8 hPa NW 10 km/h 12 km/h 74% 0.00 mm 218.81 W/m2
15:19 33.0 °C 27.0 °C 1008.8 hPa SSW 5 km/h 8 km/h 74% 0.00 mm 169.06 W/m2
15:23 33.0 °C 27.0 °C 1008.4 hPa SW 5 km/h 8 km/h 74% 0.00 mm 198.60 W/m2
15:29 33.0 °C 27.0 °C 1008.8 hPa West 4 km/h 4 km/h 74% 0.00 mm 484.37 W/m2
15:34 33.0 °C 27.0 °C 1008.5 hPa West 9 km/h 16 km/h 74% 0.00 mm 248.39 W/m2
15:39 33.0 °C 27.0 °C 1008.4 hPa SSW 7 km/h 12 km/h 74% 0.00 mm 457.07 W/m2
15:44 34.0 °C 28.0 °C 1008.5 hPa SW 5 km/h 8 km/h 73% 0.00 mm 506.59 W/m2
15:54 34.0 °C 28.0 °C 1008.5 hPa WSW 8 km/h 12 km/h 71% 0.00 mm 497.81 W/m2
15:59 34.0 °C 28.0 °C 1008.5 hPa WNW 8 km/h 12 km/h 72% 0.00 mm 509.53 W/m2
16:04 34.0 °C 28.0 °C 1008.5 hPa WNW 9 km/h 16 km/h 72% 0.00 mm 514.86 W/m2
16:09 34.0 °C 28.0 °C 1008.5 hPa SW 5 km/h 8 km/h 73% 0.00 mm 501.18 W/m2
16:13 34.0 °C 28.0 °C 1008.5 hPa South 5 km/h 8 km/h 71% 0.00 mm 475.88 W/m2
16:17 34.0 °C 28.0 °C 1008.2 hPa SSW 5 km/h 8 km/h 72% 0.00 mm 158.59 W/m2
16:24 33.0 °C 28.0 °C 1008.6 hPa WSW 5 km/h 8 km/h 74% 0.00 mm 90.25 W/m2
16:29 32.0 °C 28.0 °C 1008.8 hPa SW 3 km/h 4 km/h 77% 0.00 mm 36.29 W/m2
16:34 32.0 °C 27.0 °C 1008.8 hPa WNW 9 km/h 12 km/h 80% 0.00 mm 30.47 W/m2
16:39 31.0 °C 27.0 °C 1008.8 hPa SW 3 km/h 4 km/h 80% 0.00 mm 33.51 W/m2
16:44 31.0 °C 27.0 °C 1008.6 hPa West 6 km/h 8 km/h 82% 0.00 mm 52.20 W/m2
16:49 31.0 °C 27.0 °C 1008.6 hPa WNW 7 km/h 8 km/h 82% 0.00 mm 94.93 W/m2
16:54 31.0 °C 27.0 °C 1008.8 hPa WNW 3 km/h 4 km/h 83% 0.00 mm 90.77 W/m2
16:57 31.0 °C 27.0 °C 1008.9 hPa South 3 km/h 4 km/h 83% 0.00 mm 106.13 W/m2
17:03 31.0 °C 28.0 °C 1008.8 hPa South 4 km/h 4 km/h 83% 0.00 mm 96.98 W/m2
17:09 31.0 °C 27.0 °C 1008.8 hPa Calm   4 km/h 82% 0.00 mm 77.14 W/m2
17:14 31.0 °C 27.0 °C 1008.7 hPa WNW 4 km/h 4 km/h 82% 0.00 mm 53.02 W/m2
17:19 31.0 °C 27.0 °C 1008.8 hPa West 1 km/h 4 km/h 82% 0.00 mm 206.40 W/m2
17:24 31.0 °C 28.0 °C 1008.6 hPa SW 1 km/h 4 km/h 81% 0.00 mm 72.18 W/m2
17:29 31.0 °C 28.0 °C 1008.6 hPa West 4 km/h 4 km/h 81% 0.00 mm 145.84 W/m2
17:34 31.0 °C 28.0 °C 1008.8 hPa NW 4 km/h 8 km/h 81% 0.00 mm 122.09 W/m2
17:39 31.0 °C 27.0 °C 1008.8 hPa NW 6 km/h 8 km/h 81% 0.00 mm 40.70 W/m2
17:44 31.0 °C 27.0 °C 1008.8 hPa West 4 km/h 4 km/h 81% 0.00 mm 38.94 W/m2
17:49 31.0 °C 28.0 °C 1008.8 hPa WNW 3 km/h 4 km/h 82% 0.00 mm 34.01 W/m2
17:53 31.0 °C 27.0 °C 1008.8 hPa WNW 5 km/h 8 km/h 82% 0.00 mm 31.99 W/m2
17:59 31.0 °C 27.0 °C 1008.8 hPa NW 9 km/h 12 km/h 83% 0.00 mm 29.63 W/m2
18:04 31.0 °C 27.0 °C 1008.9 hPa WNW 4 km/h 8 km/h 82% 0.00 mm 27.85 W/m2
18:09 31.0 °C 27.0 °C 1009.1 hPa WNW 7 km/h 8 km/h 82% 0.00 mm 24.66 W/m2
18:14 30.0 °C 27.0 °C 1009.1 hPa NW 9 km/h 12 km/h 82% 0.00 mm 21.01 W/m2
18:19 30.0 °C 27.0 °C 1009.2 hPa NW 9 km/h 12 km/h 82% 0.00 mm 12.75 W/m2
18:24 30.0 °C 27.0 °C 1009.3 hPa NW 9 km/h 12 km/h 83% 0.00 mm 7.52 W/m2
18:29 30.0 °C 27.0 °C 1009.2 hPa NW 8 km/h 12 km/h 83% 0.00 mm 3.28 W/m2
18:34 30.0 °C 27.0 °C 1009.2 hPa Calm   4 km/h 83% 0.00 mm 0.00 W/m2
18:39 30.0 °C 27.0 °C 1009.5 hPa WNW 1 km/h 4 km/h 84% 0.00 mm 0.00 W/m2
18:43 30.0 °C 27.0 °C 1009.2 hPa Calm     84% 0.00 mm 0.00 W/m2
18:49 30.0 °C 27.0 °C 1009.3 hPa Calm     84% 0.00 mm 0.00 W/m2
18:54 30.0 °C 27.0 °C 1009.1 hPa Calm     84% 0.00 mm 0.00 W/m2
18:59 30.0 °C 27.0 °C 1009.5 hPa Calm     85% 0.00 mm 0.00 W/m2
19:04 30.0 °C 27.0 °C 1009.5 hPa Calm     85% 0.00 mm 0.00 W/m2
19:09 30.0 °C 27.0 °C 1009.6 hPa Calm     85% 0.00 mm 0.00 W/m2
19:14 30.0 °C 27.0 °C 1009.6 hPa Calm     85% 0.00 mm 0.00 W/m2
19:19 30.0 °C 27.0 °C 1009.6 hPa Calm     85% 0.00 mm 0.00 W/m2
19:24 30.0 °C 27.0 °C 1009.5 hPa Calm     85% 0.00 mm 0.00 W/m2
19:29 30.0 °C 27.0 °C 1009.5 hPa Calm     85% 0.00 mm 0.00 W/m2
19:33 30.0 °C 27.0 °C 1009.5 hPa Calm     84% 0.00 mm 0.00 W/m2
19:39 30.0 °C 27.0 °C 1009.3 hPa Calm     85% 0.00 mm 0.00 W/m2
19:43 30.0 °C 27.0 °C 1009.5 hPa Calm     85% 0.00 mm 0.00 W/m2
19:49 30.0 °C 27.0 °C 1009.8 hPa SSE 1 km/h 4 km/h 84% 0.00 mm 0.00 W/m2
19:54 30.0 °C 27.0 °C 1010.0 hPa SSE 2 km/h 4 km/h 84% 0.00 mm 0.00 W/m2
19:59 30.0 °C 27.0 °C 1010.0 hPa SE 3 km/h 4 km/h 84% 0.00 mm 0.00 W/m2
20:04 30.0 °C 27.0 °C 1010.2 hPa Calm     84% 0.00 mm 0.00 W/m2
20:09 30.0 °C 27.0 °C 1010.2 hPa Calm     85% 0.00 mm 0.00 W/m2
20:12 30.0 °C 27.0 °C 1010.2 hPa Calm     85% 0.00 mm 0.00 W/m2
20:17 30.0 °C 27.0 °C 1010.1 hPa Calm     85% 0.00 mm 0.00 W/m2
20:24 30.0 °C 27.0 °C 1010.3 hPa Calm     85% 0.00 mm 0.00 W/m2
20:29 30.0 °C 27.0 °C 1010.3 hPa Calm     85% 0.00 mm 0.00 W/m2
20:34 30.0 °C 27.0 °C 1010.2 hPa Calm     85% 0.00 mm 0.00 W/m2
20:39 30.0 °C 27.0 °C 1010.4 hPa Calm   4 km/h 86% 0.00 mm 0.00 W/m2
20:44 30.0 °C 27.0 °C 1010.4 hPa Calm   4 km/h 86% 0.00 mm 0.00 W/m2
20:49 30.0 °C 27.0 °C 1010.4 hPa Calm     86% 0.00 mm 0.00 W/m2
20:54 30.0 °C 27.0 °C 1010.5 hPa Calm     86% 0.00 mm 0.00 W/m2
20:59 30.0 °C 27.0 °C 1010.6 hPa Calm     86% 0.00 mm 0.00 W/m2
21:04 30.0 °C 27.0 °C 1010.6 hPa Calm     86% 0.00 mm 0.00 W/m2
21:09 30.0 °C 27.0 °C 1010.6 hPa Calm     86% 0.00 mm 0.00 W/m2
21:14 30.0 °C 27.0 °C 1010.7 hPa Calm     86% 0.00 mm 0.00 W/m2
21:19 30.0 °C 27.0 °C 1010.7 hPa Calm     86% 0.00 mm 0.00 W/m2
21:24 30.0 °C 27.0 °C 1010.9 hPa Calm     86% 0.00 mm 0.00 W/m2
21:29 30.0 °C 27.0 °C 1010.9 hPa Calm     86% 0.00 mm 0.00 W/m2
21:34 30.0 °C 27.0 °C 1010.8 hPa Calm     86% 0.00 mm 0.00 W/m2
21:39 29.0 °C 27.0 °C 1011.0 hPa Calm     86% 0.00 mm 0.00 W/m2
21:44 30.0 °C 27.0 °C 1011.0 hPa Calm     86% 0.00 mm 0.00 W/m2
21:49 30.0 °C 27.0 °C 1011.1 hPa Calm     85% 0.00 mm 0.00 W/m2
21:54 30.0 °C 27.0 °C 1011.1 hPa Calm     85% 0.00 mm 0.00 W/m2
21:59 30.0 °C 27.0 °C 1011.0 hPa Calm     86% 0.00 mm 0.00 W/m2
22:04 30.0 °C 27.0 °C 1010.9 hPa Calm     86% 0.00 mm 0.00 W/m2
22:09 30.0 °C 27.0 °C 1011.0 hPa Calm     86% 0.00 mm 0.00 W/m2
22:14 30.0 °C 27.0 °C 1011.0 hPa NNE 5 km/h 8 km/h 87% 0.00 mm 0.00 W/m2
22:19 30.0 °C 27.0 °C 1011.1 hPa NNE 7 km/h 8 km/h 88% 0.00 mm 0.00 W/m2
22:24 29.0 °C 27.0 °C 1011.1 hPa North 5 km/h 8 km/h 90% 0.00 mm 0.00 W/m2
22:29 29.0 °C 27.0 °C 1011.1 hPa North 1 km/h 4 km/h 90% 0.00 mm 0.00 W/m2
22:34 29.0 °C 27.0 °C 1011.0 hPa Calm     90% 0.00 mm 0.00 W/m2
22:39 29.0 °C 27.0 °C 1011.0 hPa NNE 3 km/h 4 km/h 90% 0.00 mm 0.00 W/m2
22:44 29.0 °C 27.0 °C 1011.2 hPa NE 4 km/h 8 km/h 90% 0.00 mm 0.00 W/m2
22:49 29.0 °C 27.0 °C 1011.0 hPa ESE 1 km/h 4 km/h 90% 0.00 mm 0.00 W/m2
22:54 29.0 °C 27.0 °C 1011.1 hPa NE 4 km/h 4 km/h 89% 0.00 mm 0.00 W/m2
22:59 29.0 °C 27.0 °C 1011.3 hPa NE 2 km/h 4 km/h 90% 0.00 mm 0.00 W/m2
23:04 29.0 °C 27.0 °C 1011.3 hPa Calm   4 km/h 90% 0.00 mm 0.00 W/m2
23:09 29.0 °C 27.0 °C 1011.2 hPa East 1 km/h 4 km/h 90% 0.00 mm 0.00 W/m2
23:14 29.0 °C 27.0 °C 1011.2 hPa Calm     89% 0.00 mm 0.00 W/m2
23:19 29.0 °C 27.0 °C 1011.2 hPa Calm     89% 0.00 mm 0.00 W/m2
23:24 29.0 °C 27.0 °C 1010.9 hPa Calm     89% 0.00 mm 0.00 W/m2
23:29 29.0 °C 27.0 °C 1011.0 hPa Calm     89% 0.00 mm 0.00 W/m2
23:34 29.0 °C 27.0 °C 1010.7 hPa East 1 km/h 4 km/h 88% 0.00 mm 0.00 W/m2
23:39 29.0 °C 27.0 °C 1010.8 hPa Calm     88% 0.00 mm 0.00 W/m2
23:44 29.0 °C 27.0 °C 1010.8 hPa NE 3 km/h 4 km/h 89% 0.00 mm 0.00 W/m2
23:49 29.0 °C 27.0 °C 1010.8 hPa NE 1 km/h 4 km/h 90% 0.00 mm 0.00 W/m2
23:54 29.0 °C 27.0 °C 1010.8 hPa NNE 1 km/h 4 km/h 90% 0.00 mm 0.00 W/m2
23:59 29.0 °C 27.0 °C 1011.0 hPa Calm   4 km/h 91% 0.00 mm 0.00 W/m2
PIMOHWEATHER Philippines
Compliments of Weather Underground - 2 mb